OBJECT M, 47424

Orbit data source: Space-Track

You're viewing an Uncataloged Satellite

Recently launched and/or uncataloged satellites may have evolving metadata. Metadata may include but not limited to: Owner, Maufacturer, Bus, Motor, and Mission.

OBJECT M, 47424 is a satellite in SSO that was launched on Sun, 24 Jan 2021 UTC launched from the Air Force Eastern Test Range (AFETR). Unknown objects in Earth's orbit typically refer to objects detected orbiting the Earth but have not yet been identified or cataloged. These objects could be anything from previously untracked satellites, spent rocket stages, debris from satellite collisions, or even natural meteoroids temporarily captured by Earth's gravity.

Loading next visibility...
Identifier
47424, 2021-006M
Orbit
SSO
Country
Flag of TBDTBD
Related business
Manufacturer
SpaceX/Seattle
Mission
Spacecraft
Bus & Motor
Unknown
Mass
~100 kg wet, ~100 kg dry
Launch date (UTC)
2021-01-24 (5 years ago)
Launch vehicle
Unknown
Launch site
Air Force Eastern Test Range (AFETR)
Object type
Unknown
Shape & HBR
Cyl, Unknown HBR
Radar Cross Section
0.110 m², Medium (>0.1 m² and < 1m²)

Expand to show TLE details & history
Last TLE update: 7 hours ago

TLE from 7 hours ago
0 OBJECT M
1 47424U 21006M   25288.57810132  .00007444  00000-0  25867-3 0  9992
2 47424  97.2629 334.7021 0011027   5.2524 354.8830 15.29971093262150
Epoch: 2025-10-15T13:52Z
TLE epoch observation values (Epoch: 2025-10-15T13:52:27.954Z)
Latitude
-0.00005°
Longitude
102.23546°
Altitude
471.477 km
Speed
7.634 km/s
True Right ascension
22h 18m 48s
True Declination
0° 00' 00"
Sunlit
Object was in full shadow at epoch
Visualization orbit readout
Latitude
Unknown
Longitude
Unknown
Altitude
Unknown
Speed
Unknown
Apparent Right ascension
Unknown
Apparent Declination
Unknown
Sunlit
N/A
Visualization observer readout
Local Sidereal Time
15:11:26
Azimuth
Unknown
Elevation
Unknown
Doppler factor
Unknown
Orbital elements
Apogee altitude
480.4 km
Perigee altitude
465.291 km
Semi-major axis
6,850.982 km
Eccentricity
0.0011
Inclination
97.2629°
RAAN
334.7021°
Arg. of periapsis
5.2524°
True anomaly
354.87171°
Mean anomaly
354.883°
Eccentric anomaly
354.87736°
Mean motion
3.82749 °/min
Orbital period
94.06 mins
BSTAR
0.00025867
Loading maneuver chart data...
Computing Atmospheric mass density...

Documentation

Showing up to 5 results
|